Location: Strawberry
(45.6646°N, 111.9596°W)
Time: 22:00:14
(UTC+00:00)

Explorer 11/Cluster Stage 4 - Pass Details

Date: 10 October 2022
Orbit: 466 x 1248 km, 28.8° (Epoch: 28 November)

Event Time Altitude Azimuth Distance (km) Brightness Sun altitude
Rises 19:17:51 0° 251° (WSW) 4,141 10.5 37.5°
Reaches altitude 10° 19:21:43 10° 235° (SW) 3,208 10.3 37.5°
Maximum altitude 19:26:58 19° 194° (SSW) 2,584 10.9 37.4°
Drops below altitude 10° 19:32:08 10° 154° (SSE) 3,124 10.6 37.3°
Sets 19:35:50 0° 137° (SE) 3,996 10.7 37.3°
